Time,TemperatureF,DewpointF,PressureIn,WindDirection,WindDirectionDegrees,WindSpeedMPH,WindSpeedGustMPH,Humidity,HourlyPrecipIn,Conditions,Clouds,dailyrainin,SoftwareType,DateUTC
2013-08-04 00:06:00,68.6,66.0,30.13,ENE,76,0.0,0.0,90,0.00,,,0.00,weatherlink.com 1.10,2013-08-04 04:06:00,
2013-08-04 00:21:00,68.4,65.0,30.12,ENE,76,0.0,0.0,90,0.00,,,0.00,weatherlink.com 1.10,2013-08-04 04:21:00,
2013-08-04 00:36:00,68.3,65.0,30.13,ENE,76,0.0,0.0,90,0.00,,,0.00,weatherlink.com 1.10,2013-08-04 04:36:00,
2013-08-04 00:51:00,68.0,65.0,30.13,ENE,76,0.0,0.0,90,0.00,,,0.00,weatherlink.com 1.10,2013-08-04 04:51:00,
2013-08-04 01:06:00,67.6,65.0,30.13,ENE,76,0.0,0.0,90,0.00,,,0.00,weatherlink.com 1.10,2013-08-04 05:06:00,
2013-08-04 01:21:00,67.3,64.0,30.13,ENE,77,0.0,0.0,90,0.00,,,0.00,weatherlink.com 1.10,2013-08-04 05:21:00,
2013-08-04 01:36:00,67.2,64.0,30.13,ENE,76,0.0,0.0,89,0.00,,,0.00,weatherlink.com 1.10,2013-08-04 05:36:00,
2013-08-04 01:51:00,67.2,64.0,30.12,ENE,76,0.0,0.0,88,0.00,,,0.00,weatherlink.com 1.10,2013-08-04 05:51:00,
2013-08-04 02:06:00,67.2,64.0,30.12,ENE,76,0.0,0.0,88,0.00,,,0.00,weatherlink.com 1.10,2013-08-04 06:06:00,
2013-08-04 02:22:00,67.2,64.0,30.11,ENE,76,0.0,0.0,88,0.00,,,0.00,weatherlink.com 1.10,2013-08-04 06:22:00,
2013-08-04 02:36:00,67.0,64.0,30.11,ENE,76,0.0,0.0,89,0.00,,,0.00,weatherlink.com 1.10,2013-08-04 06:36:00,
2013-08-04 02:52:00,66.5,63.0,30.11,ENE,76,0.0,0.0,89,0.00,,,0.00,weatherlink.com 1.10,2013-08-04 06:52:00,
2013-08-04 03:07:00,66.2,63.0,30.10,ENE,76,0.0,0.0,89,0.00,,,0.00,weatherlink.com 1.10,2013-08-04 07:07:00,
2013-08-04 03:21:00,66.1,63.0,30.10,ENE,76,0.0,0.0,88,0.00,,,0.00,weatherlink.com 1.10,2013-08-04 07:21:00,
2013-08-04 03:37:00,65.9,62.0,30.10,ENE,76,0.0,0.0,88,0.00,,,0.00,weatherlink.com 1.10,2013-08-04 07:37:00,
2013-08-04 03:51:00,65.8,62.0,30.09,ENE,76,0.0,0.0,88,0.00,,,0.00,weatherlink.com 1.10,2013-08-04 07:51:00,
2013-08-04 04:07:00,65.6,62.0,30.09,ENE,76,0.0,0.0,88,0.00,,,0.00,weatherlink.com 1.10,2013-08-04 08:07:00,
2013-08-04 04:22:00,65.3,62.0,30.10,ENE,76,0.0,0.0,88,0.00,,,0.00,weatherlink.com 1.10,2013-08-04 08:22:00,
2013-08-04 04:37:00,65.4,62.0,30.10,ENE,76,0.0,0.0,87,0.00,,,0.00,weatherlink.com 1.10,2013-08-04 08:37:00,
2013-08-04 04:52:00,65.4,61.0,30.10,ENE,76,0.0,0.0,86,0.00,,,0.00,weatherlink.com 1.10,2013-08-04 08:52:00,
2013-08-04 05:07:00,65.6,61.0,30.10,ENE,77,0.0,0.0,86,0.00,,,0.00,weatherlink.com 1.10,2013-08-04 09:07:00,
2013-08-04 05:22:00,65.7,62.0,30.10,ENE,76,0.0,0.0,86,0.00,,,0.00,weatherlink.com 1.10,2013-08-04 09:22:00,
2013-08-04 05:37:00,65.7,62.0,30.10,ENE,77,0.0,0.0,87,0.00,,,0.00,weatherlink.com 1.10,2013-08-04 09:37:00,
2013-08-04 05:52:00,66.0,62.0,30.11,ENE,76,0.0,0.0,86,0.00,,,0.00,weatherlink.com 1.10,2013-08-04 09:52:00,
2013-08-04 06:07:00,66.8,62.0,30.11,SE,128,0.0,0.0,84,0.00,,,0.00,weatherlink.com 1.10,2013-08-04 10:07:00,
2013-08-04 06:22:00,67.3,62.0,30.11,NNW,343,0.0,0.0,84,0.00,,,0.00,weatherlink.com 1.10,2013-08-04 10:22:00,
2013-08-04 06:37:00,67.5,63.0,30.11,SE,125,0.0,0.0,85,0.00,,,0.00,weatherlink.com 1.10,2013-08-04 10:37:00,
2013-08-04 06:52:00,67.6,63.0,30.11,SSW,208,0.0,0.0,86,0.00,,,0.00,weatherlink.com 1.10,2013-08-04 10:52:00,
2013-08-04 07:07:00,67.6,64.0,30.12,SSW,208,0.0,0.0,87,0.00,,,0.00,weatherlink.com 1.10,2013-08-04 11:07:00,
2013-08-04 07:22:00,67.8,64.0,30.11,SSW,205,0.0,0.0,88,0.00,,,0.00,weatherlink.com 1.10,2013-08-04 11:22:00,
2013-08-04 07:38:00,68.1,65.0,30.12,SW,226,0.0,0.0,89,0.00,,,0.00,weatherlink.com 1.10,2013-08-04 11:38:00,
2013-08-04 07:52:00,68.5,66.0,30.12,ESE,107,0.0,0.0,91,0.00,,,0.00,weatherlink.com 1.10,2013-08-04 11:52:00,
2013-08-04 08:07:00,68.9,66.0,30.12,SSW,211,0.0,0.0,91,0.00,,,0.00,weatherlink.com 1.10,2013-08-04 12:07:00,
2013-08-04 08:22:00,69.4,67.0,30.12,SW,219,0.0,0.0,91,0.00,,,0.00,weatherlink.com 1.10,2013-08-04 12:22:00,
2013-08-04 08:37:00,69.6,67.0,30.13,SE,136,0.0,0.0,90,0.00,,,0.00,weatherlink.com 1.10,2013-08-04 12:37:00,
2013-08-04 08:52:00,69.8,67.0,30.13,WSW,239,0.0,0.0,90,0.00,,,0.00,weatherlink.com 1.10,2013-08-04 12:52:00,
2013-08-04 09:07:00,70.1,67.0,30.13,ESE,119,0.0,0.0,90,0.00,,,0.00,weatherlink.com 1.10,2013-08-04 13:07:00,
2013-08-04 09:22:00,70.7,68.0,30.13,ESE,103,0.0,0.0,90,0.00,,,0.00,weatherlink.com 1.10,2013-08-04 13:22:00,
2013-08-04 09:37:00,71.1,68.0,30.13,SSW,192,0.0,0.0,90,0.00,,,0.00,weatherlink.com 1.10,2013-08-04 13:37:00,
2013-08-04 09:52:00,71.2,68.0,30.13,East,91,0.0,0.0,88,0.00,,,0.00,weatherlink.com 1.10,2013-08-04 13:52:00,
2013-08-04 10:07:00,72.4,68.0,30.13,ESE,113,0.0,0.0,87,0.00,,,0.00,weatherlink.com 1.10,2013-08-04 14:07:00,
2013-08-04 10:22:00,73.3,69.0,30.12,South,174,0.0,0.0,87,0.00,,,0.00,weatherlink.com 1.10,2013-08-04 14:22:00,
2013-08-04 10:37:00,74.3,69.0,30.12,ENE,72,0.0,0.0,84,0.00,,,0.00,weatherlink.com 1.10,2013-08-04 14:37:00,
2013-08-04 10:52:00,75.3,70.0,30.12,WNW,301,0.0,0.0,83,0.00,,,0.00,weatherlink.com 1.10,2013-08-04 14:52:00,
2013-08-04 11:07:00,75.1,69.0,30.11,ESE,115,0.0,0.0,82,0.00,,,0.00,weatherlink.com 1.10,2013-08-04 15:07:00,
2013-08-04 11:22:00,75.3,70.0,30.11,East,80,0.0,0.0,83,0.00,,,0.00,weatherlink.com 1.10,2013-08-04 15:22:00,
2013-08-04 11:37:00,76.2,70.0,30.12,SSE,152,0.0,0.0,81,0.00,,,0.00,weatherlink.com 1.10,2013-08-04 15:37:00,
2013-08-04 11:53:00,77.1,70.0,30.12,SSW,204,0.0,1.0,78,0.00,,,0.00,weatherlink.com 1.10,2013-08-04 15:53:00,
2013-08-04 12:07:00,78.7,72.0,30.12,West,277,0.0,3.0,80,0.00,,,0.00,weatherlink.com 1.10,2013-08-04 16:07:00,
2013-08-04 12:23:00,79.2,70.0,30.11,SSW,198,0.0,4.0,74,0.00,,,0.00,weatherlink.com 1.10,2013-08-04 16:23:00,
2013-08-04 12:38:00,78.8,70.0,30.11,WNW,293,0.0,4.0,75,0.00,,,0.00,weatherlink.com 1.10,2013-08-04 16:38:00,
2013-08-04 12:52:00,80.0,70.0,30.11,SE,129,0.0,5.0,71,0.00,,,0.00,weatherlink.com 1.10,2013-08-04 16:52:00,
2013-08-04 13:08:00,80.7,70.0,30.10,South,183,0.0,1.0,70,0.00,,,0.00,weatherlink.com 1.10,2013-08-04 17:08:00,
2013-08-04 13:22:00,81.0,69.0,30.09,East,89,0.0,5.0,68,0.00,,,0.00,weatherlink.com 1.10,2013-08-04 17:22:00,
2013-08-04 13:38:00,81.8,71.0,30.09,SSW,202,0.0,6.0,69,0.00,,,0.00,weatherlink.com 1.10,2013-08-04 17:38:00,
2013-08-04 13:53:00,82.2,70.0,30.09,NNW,346,0.0,1.0,67,0.00,,,0.00,weatherlink.com 1.10,2013-08-04 17:53:00,
2013-08-04 14:08:00,82.1,70.0,30.10,SW,215,0.0,1.0,66,0.00,,,0.00,weatherlink.com 1.10,2013-08-04 18:08:00,
2013-08-04 14:23:00,81.6,70.0,30.09,WNW,297,0.0,5.0,68,0.00,,,0.00,weatherlink.com 1.10,2013-08-04 18:23:00,
2013-08-04 14:38:00,82.9,71.0,30.09,SSE,153,0.0,0.0,68,0.00,,,0.00,weatherlink.com 1.10,2013-08-04 18:38:00,
2013-08-04 14:53:00,84.5,71.0,30.08,NW,320,0.0,1.0,64,0.00,,,0.00,weatherlink.com 1.10,2013-08-04 18:53:00,
2013-08-04 15:08:00,83.4,70.0,30.08,East,97,0.0,1.0,64,0.00,,,0.00,weatherlink.com 1.10,2013-08-04 19:08:00,
2013-08-04 15:23:00,81.8,69.0,30.08,East,91,0.0,1.0,65,0.00,,,0.00,weatherlink.com 1.10,2013-08-04 19:23:00,
2013-08-04 15:38:00,81.9,69.0,30.08,WNW,283,0.0,1.0,66,0.00,,,0.00,weatherlink.com 1.10,2013-08-04 19:38:00,
2013-08-04 15:53:00,80.8,69.0,30.08,ESE,116,0.0,0.0,68,0.00,,,0.00,weatherlink.com 1.10,2013-08-04 19:53:00,
2013-08-04 16:08:00,81.6,70.0,30.07,NE,50,0.0,4.0,67,0.00,,,0.00,weatherlink.com 1.10,2013-08-04 20:08:00,
2013-08-04 16:23:00,84.1,71.0,30.07,SW,218,0.0,1.0,65,0.00,,,0.00,weatherlink.com 1.10,2013-08-04 20:23:00,
2013-08-04 16:38:00,84.7,69.0,30.07,East,100,0.0,5.0,59,0.00,,,0.00,weatherlink.com 1.10,2013-08-04 20:38:00,
2013-08-04 16:53:00,85.7,70.0,30.07,South,186,0.0,0.0,60,0.00,,,0.00,weatherlink.com 1.10,2013-08-04 20:53:00,
2013-08-04 17:08:00,85.4,68.0,30.06,SE,127,0.0,4.0,56,0.00,,,0.00,weatherlink.com 1.10,2013-08-04 21:08:00,
2013-08-04 17:23:00,85.6,71.0,30.06,West,260,0.0,0.0,61,0.00,,,0.00,weatherlink.com 1.10,2013-08-04 21:23:00,
2013-08-04 17:38:00,85.0,70.0,30.07,SE,131,0.0,2.0,60,0.00,,,0.00,weatherlink.com 1.10,2013-08-04 21:38:00,
2013-08-04 17:53:00,84.2,71.0,30.07,North,353,0.0,0.0,64,0.00,,,0.00,weatherlink.com 1.10,2013-08-04 21:53:00,
2013-08-04 18:08:00,84.3,70.0,30.06,SE,142,0.0,4.0,63,0.00,,,0.00,weatherlink.com 1.10,2013-08-04 22:08:00,
2013-08-04 18:23:00,84.4,68.0,30.06,East,100,0.0,0.0,59,0.00,,,0.00,weatherlink.com 1.10,2013-08-04 22:23:00,
2013-08-04 18:38:00,83.7,69.0,30.06,WSW,244,0.0,0.0,62,0.00,,,0.00,weatherlink.com 1.10,2013-08-04 22:38:00,
2013-08-04 18:53:00,84.0,70.0,30.06,WSW,252,0.0,0.0,62,0.00,,,0.00,weatherlink.com 1.10,2013-08-04 22:53:00,
2013-08-04 19:08:00,83.6,69.0,30.07,WNW,285,0.0,0.0,62,0.00,,,0.00,weatherlink.com 1.10,2013-08-04 23:08:00,
2013-08-04 19:23:00,81.5,66.0,30.07,SW,221,0.0,1.0,59,0.00,,,0.00,weatherlink.com 1.10,2013-08-04 23:23:00,
2013-08-04 19:38:00,79.4,66.0,30.07,South,170,0.0,1.0,63,0.00,,,0.00,weatherlink.com 1.10,2013-08-04 23:38:00,
2013-08-04 19:53:00,78.0,66.0,30.08,SE,136,0.0,0.0,66,0.00,,,0.00,weatherlink.com 1.10,2013-08-04 23:53:00,
2013-08-04 20:08:00,76.0,66.0,30.08,SE,129,0.0,0.0,72,0.00,,,0.00,weatherlink.com 1.10,2013-08-05 00:08:00,
2013-08-04 20:23:00,74.5,66.0,30.08,East,90,0.0,0.0,74,0.00,,,0.00,weatherlink.com 1.10,2013-08-05 00:23:00,
2013-08-04 20:38:00,73.2,66.0,30.08,East,90,0.0,0.0,77,0.00,,,0.00,weatherlink.com 1.10,2013-08-05 00:38:00,
2013-08-04 20:53:00,71.9,65.0,30.08,East,90,0.0,0.0,79,0.00,,,0.00,weatherlink.com 1.10,2013-08-05 00:53:00,
2013-08-04 21:08:00,70.5,65.0,30.09,East,91,0.0,0.0,82,0.00,,,0.00,weatherlink.com 1.10,2013-08-05 01:08:00,
2013-08-04 21:23:00,69.7,65.0,30.09,East,91,0.0,0.0,85,0.00,,,0.00,weatherlink.com 1.10,2013-08-05 01:23:00,
2013-08-04 21:38:00,68.9,65.0,30.09,East,90,0.0,0.0,86,0.00,,,0.00,weatherlink.com 1.10,2013-08-05 01:38:00,
2013-08-04 21:53:00,67.9,64.0,30.10,East,90,0.0,0.0,87,0.00,,,0.00,weatherlink.com 1.10,2013-08-05 01:53:00,
2013-08-04 22:08:00,67.1,64.0,30.11,East,91,0.0,0.0,88,0.00,,,0.00,weatherlink.com 1.10,2013-08-05 02:08:00,
2013-08-04 22:23:00,66.9,64.0,30.11,East,90,0.0,0.0,89,0.00,,,0.00,weatherlink.com 1.10,2013-08-05 02:23:00,
2013-08-04 22:38:00,66.9,64.0,30.11,SSE,153,0.0,0.0,89,0.00,,,0.00,weatherlink.com 1.10,2013-08-05 02:38:00,
2013-08-04 22:53:00,66.8,63.0,30.12,ENE,77,0.0,0.0,88,0.00,,,0.00,weatherlink.com 1.10,2013-08-05 02:53:00,
2013-08-04 23:08:00,66.7,63.0,30.12,ENE,62,0.0,0.0,88,0.00,,,0.00,weatherlink.com 1.10,2013-08-05 03:08:00,
2013-08-04 23:23:00,66.1,63.0,30.13,ENE,62,0.0,0.0,89,0.00,,,0.00,weatherlink.com 1.10,2013-08-05 03:23:00,
2013-08-04 23:39:00,65.9,63.0,30.13,ENE,62,0.0,0.0,89,0.00,,,0.00,weatherlink.com 1.10,2013-08-05 03:39:00,
2013-08-04 23:54:00,65.1,62.0,30.13,ENE,62,0.0,0.0,90,0.00,,,0.00,weatherlink.com 1.10,2013-08-05 03:54:00,